SCP
0 0 0 0 0 0 0 0 0 0 0 0 0 0 0 0 0 0 0 0 0 0 0 0 0 0 0 0 0 0 0 0 0 0 0 0 0 0 0 0 0 0 0
0 0 0 0 0 0 0 0 0 0 0 0 0 0 0 0 0 0 0 0 0 0 0 0 0 0 0 0 0 0 0 0 0 0 0 0 0 0 0 0 0 0 0
0 0 0 0 0 0 0 0 0 0 0 0 0 0 0 0 0 0 0 0 0 0 0 0 0 0 0 0 0 0 0 0 0 0 0 0 0 0 0 0 0 0 0
0 0 0 0 0 0 0 0 0 0 0 0 0 0 0 0 0 0 0 0 0 0 0 0 0 0 0 0 0 0 0 0 0 0 0 0 0 0 0 0 0 0 0
0 0 0 0 0 0 0 0 0 0 0 0 0 0 0 0 0 0 0 0 0 0 0 0 0 0 0 0 0 0 0 0 0 0 0 0 0 0 0 0 0 0 0
0 0 0 0 0 0 0 0 0 0 0 0 0 0 0 0 0 0 0 0 0 0 0 0 0 0 0 0 0 0 0 0 0 0 0 0 0 0 0 0 0 0 0
0 0 0 0 0 0 0 0 0 0 0 0 0 0 0 0 0 0 0 0 0 0 0 0 0 0 0 0 0 0 0 0 0 0 0 0 0 0 0 0 0 0 0
0 0 0 0 0 0 0 0 0 0 0 0 0 0 0 0 0 0 0 0 0 0 0 0 0 0 0 0 0 0 0 0 0 0 0 0 0 0 0 0 0 0 0
0 0 0 0 0 0 0 0 0 0 0 0 0 0 0 0 0 0 0 0 0 0 0 0 0 0 0 0 0 0 0 0 0 0 0 0 0 0 0 0 0 0 0
0 0 0 0 0 0 0 0 0 0 0 0 0 0 0 0 0 0 0 0 0 0 0 0 0 0 0 0 0 0 0 0 0 0 0 0 0 0 0 0 0 0 0
0 0 0 0 0 0 0 0 0 0 0 0 0 0 0 0 0 0 0 0 0 0 0 0 0 0 0 0 0 0 0 0 0 0 0 0 0 0 0 0 0 0 0
0 0 0 0 0 0 0 0 0 0 0 0 0 0 0 0 0 0 0 0 0 0 0 0 0 0 0 0 0 0 0 0 0 0 0 0 0 0 0 0 0 0 0
0 0 0 0 0 0 0 0 0 0 0 0 0 0 0 0 0 0 0 0 0 0 0 0 0 0 0 0 0 0 0 0 0 0 0 0 0 0 0 0 0 0 0
0 0 0 0 0 0 0 0 0 0 0 0 0 0 0 0 0 0 0 0 0 0 0 0 0 0 0 0 0 0 0 0 0 0 0 0 0 0 0 0 0 0 0
0 0 0 0 0 0 0 0 0 0 0 0 0 0 0 0 0 0 0 0 0 0 0 0 0 0 0 0 0 0 0 0 0 0 0 0 0 0 0 0 0 0 0
0 0 0 0 0 0 0 0 0 0 0 0 0 0 0 0 0 0 0 0 0 0 0 0 0 0 0 0 0 0 0 0 0 0 0 0 0 0 0 0 0 0 0
0 0 0 0 0 0 0 0 0 0 0 0 0 0 0 0 0 0 0 0 0 0 0 0 0 0 0 0 0 0 0 0 0 0 0 0 0 0 0 0 0 0 0
0 0 0 0 0 0 0 0 0 0 0 0 0 0 0 0 0 0 0 0 0 0 0 0 0 0 0 0 0 0 0 0 0 0 0 0 0 0 0 0 0 0 0
0 0 0 0 0 0 0 0 0 0 0 0 0 0 0 0 0 0 0 0 0 0 0 0 0 0 0 0 0 0 0 0 0 0 0 0 0 0 0 0 0 0 0
0 0 0 0 0 0 0 0 0 0 0 0 0 0 0 0 0 0 0 0 0 0 0 0 0 0 0 0 0 0 0 0 0 0 0 0 0 0 0 0 0 0 0
0 0 0 0 0 0 0 0 0 0 0 0 0 0 0 0 0 0 0 0 0 0 0 0 0 0 0 0 0 0 0 0 0 0 0 0 0 0 0 0 0 0 0
0 0 0 0 0 0 0 0 0 0 0 0 0 0 0 0 0 0 0 0 0 0 0 0 0 0 0 0 0 0 0 0 0 0 0 0 0 0 0 0 0 0 0
0 0 0 0 0 0 0 0 0 0 0 0 0 0 0 0 0 0 0 0 0 0 0 0 0 0 0 0 0 0 0 0 0 0 0 0 0 0 0 0 0 0 0
0 0 0 0 0 0 0 0 0 0 0 0 0 0 0 0 0 0 0 0 0 0 0 0 0 0 0 0 0 0 0 0 0 0 0 0 0 0 0 0 0 0 0
0 0 0 0 0 0 0 0 0 0 0 0 0 0 0 0 0 0 0 0 0 0 0 0 0 0 0 0 0 0 0 0 0 0 0 0 0 0 0 0 0 0 0
0 0 0 0 0 0 0 0 0 0 0 0 0 0 0 0 0 0 0 0 0 0 0 0 0 0 0 0 0 0 0 0 0 0 0 0 0 0 0 0 0 0 0
Wind_Speed_500mb
12 12 14 16 19 23 26 32 36 40 42 45 51 55 58 58 57 61 65 68 68 66 70 71 72 69 71 73 76 77 78 82 93 93 92 91 91 88 83 83 95 96 102
18 15 12 11 13 16 20 23 25 30 37 44 50 55 57 59 61 63 66 69 69 69 69 69 73 70 71 75 76 79 81 81 83 91 94 94 95 89 82 80 86 99 108
13 10 9 10 9 8 8 11 17 24 29 33 36 38 39 41 46 49 52 56 59 62 64 65 67 65 71 74 77 79 81 82 87 88 92 95 90 85 80 82 88 97 93
16 14 12 12 12 13 12 11 13 18 21 24 26 29 30 33 38 41 45 51 56 57 56 56 57 62 66 71 74 78 80 81 82 85 86 90 90 87 83 83 83 84 88
22 20 17 16 15 17 18 20 23 25 26 27 28 27 29 32 34 39 44 49 52 55 59 58 59 61 65 71 73 76 79 81 81 82 84 87 90 90 90 85 81 80 92
26 26 25 23 24 23 23 24 25 27 32 36 37 37 36 38 43 47 55 61 63 65 67 70 70 69 71 74 73 74 76 74 77 78 82 89 91 89 86 86 79 85 89
27 26 26 26 27 28 30 30 31 32 34 37 40 45 49 50 55 57 59 66 68 71 74 72 76 77 77 77 77 75 74 74 72 74 76 80 79 81 74 85 84 86 85
25 26 27 28 29 30 32 34 35 38 41 42 43 46 50 51 57 60 61 66 70 73 72 72 74 75 76 74 74 73 75 72 70 68 73 69 66 60 60 62 68 68 73
28 30 32 33 35 37 40 43 46 49 51 52 53 53 52 50 53 56 57 61 66 69 68 68 67 67 66 67 71 69 66 67 62 59 59 55 54 51 49 51 66 69 71
32 36 40 43 45 46 48 50 52 55 55 56 55 55 54 52 48 49 52 56 63 64 63 62 59 58 59 61 60 59 61 60 56 52 54 54 54 55 54 53 62 68 68
38 40 42 46 50 53 54 55 55 55 55 54 53 52 51 51 47 47 46 47 50 56 60 63 58 53 55 51 47 49 52 48 46 46 51 56 55 53 56 57 53 49 58
45 48 50 52 55 59 60 59 59 60 61 59 57 52 48 48 48 47 46 46 45 51 54 56 54 47 46 42 39 40 40 43 43 45 53 57 57 53 52 52 48 50 54
44 47 49 50 53 58 64 65 65 63 64 65 62 60 55 49 44 46 46 47 45 47 51 55 55 45 38 37 33 32 31 38 45 42 46 52 54 50 49 49 48 54 59
44 49 52 56 57 58 59 62 66 65 64 64 62 61 59 55 49 48 49 48 44 43 47 49 46 41 35 32 30 27 26 35 49 50 51 52 50 48 48 48 51 57 60
51 54 55 57 58 60 58 60 59 59 60 60 57 55 58 61 57 55 52 50 46 42 43 44 39 33 31 29 32 28 26 30 41 51 50 43 42 40 44 49 53 54 61
47 49 53 56 54 54 57 57 53 55 52 50 50 46 49 54 57 56 49 43 37 35 37 41 39 32 29 27 30 30 30 30 32 42 46 50 49 45 45 45 47 51 57
52 54 54 54 55 56 55 57 62 53 51 39 38 43 49 55 55 50 44 37 32 31 31 34 37 32 28 27 26 27 26 27 28 32 38 44 45 47 46 45 44 46 49
49 52 56 57 56 55 56 56 56 59 60 54 38 45 47 46 45 42 36 33 32 30 30 28 28 28 24 24 25 24 23 23 28 27 30 34 37 41 45 49 52 48 45
47 49 53 55 55 54 53 51 49 48 48 48 45 40 41 37 35 37 34 31 30 27 30 25 21 21 19 19 23 24 22 21 21 23 24 29 33 36 38 39 43 47 47
47 48 50 52 51 50 48 45 41 39 39 39 40 41 35 35 33 32 30 26 25 29 30 28 26 26 23 21 15 13 15 16 18 20 22 23 25 27 30 33 35 37 39
49 47 48 46 46 45 43 41 37 35 34 33 35 36 34 30 29 27 25 21 20 23 26 26 25 24 24 24 22 22 23 24 25 25 24 23 22 23 23 25 28 30 31
46 46 46 46 44 40 37 35 34 34 33 32 30 32 30 29 26 25 23 20 18 19 20 21 22 22 21 20 21 22 23 23 24 26 26 27 28 28 28 27 26 26 27
41 40 39 38 38 36 34 32 31 31 30 29 29 28 28 27 26 25 25 24 23 23 22 23 23 23 23 23 23 23 23 23 24 24 25 26 28 28 29 30 31 32 32
35 35 34 34 33 31 29 28 26 25 24 24 24 24 25 24 24 23 21 20 19 19 19 19 19 19 18 19 19 20 20 20 20 21 22 23 24 25 27 30 33 34 34
29 28 27 27 26 26 24 24 23 22 21 20 19 19 18 17 17 16 15 14 14 13 13 13 13 13 13 14 14 16 18 21 22 22 22 23 25 27 28 29 30 31 32
24 23 24 24 23 24 24 23 23 22 20 19 19 19 19 19 18 18 19 19 19 19 19 18 19 20 21 22 23 25 27 30 29 27 27 28 27 26 26 26 25 25 26
Wind_Direction_500mb
359 342 320 295 273 268 270 269 259 259 260 268 270 269 270 271 267 264 266 271 273 274 274 270 272 274 273 273 273 272 271 272 272 275 271 270 268 268 260 248 238 228 229
7 358 347 336 314 289 276 274 272 264 261 261 265 269 272 272 271 269 267 267 269 270 271 272 272 274 275 277 277 277 275 276 273 277 275 273 272 270 264 253 238 227 233
11 8 8 2 357 333 316 306 291 281 278 277 277 277 275 274 273 271 271 270 270 271 273 272 274 275 272 271 274 274 274 274 274 273 272 271 268 265 255 245 236 235 231
15 9 351 329 328 338 341 326 295 285 287 289 288 287 288 284 280 279 278 280 280 276 274 276 277 274 275 275 275 277 279 275 274 273 268 269 267 264 253 241 233 226 224
37 35 33 19 358 343 332 323 316 309 303 297 293 290 287 287 288 287 287 286 282 279 277 272 269 273 274 274 276 277 278 278 276 273 269 267 263 259 250 244 236 235 230
27 23 17 7 0 353 345 335 325 316 308 302 296 290 288 288 287 290 292 288 285 282 279 280 278 274 274 274 275 278 279 279 277 274 272 268 269 264 258 245 235 227 222
13 8 5 1 355 348 344 336 329 323 317 313 306 298 295 291 284 278 273 273 273 274 276 278 279 279 281 282 280 280 279 278 276 274 270 270 270 270 266 247 238 234 234
3 357 355 354 352 350 346 342 340 337 332 326 320 314 308 301 293 287 284 280 280 278 278 281 283 286 286 286 285 282 280 277 275 270 269 269 268 270 270 263 255 243 235
349 347 345 343 341 338 335 333 332 330 329 328 327 324 317 312 305 300 291 284 282 283 284 285 286 286 288 287 288 288 284 279 279 273 267 264 262 256 248 244 232 228 225
332 333 333 331 330 328 326 324 324 323 323 322 322 322 321 318 316 310 302 298 295 294 291 290 289 290 289 289 290 290 285 285 283 276 260 252 247 249 249 235 231 223 219
319 318 318 318 318 317 317 317 315 314 313 313 314 315 318 318 321 318 316 310 306 302 300 299 299 296 292 289 291 288 287 283 279 271 258 251 245 239 236 230 231 233 240
308 308 308 308 309 307 307 307 307 307 307 306 306 306 309 313 315 313 313 309 304 299 299 298 297 293 286 290 292 292 283 272 269 259 254 243 241 240 239 237 234 238 242
310 310 309 308 306 305 303 302 302 302 302 301 301 300 303 306 310 311 316 314 309 299 298 296 298 301 294 290 291 293 275 256 259 255 250 258 256 252 238 243 243 241 240
311 308 307 306 304 302 302 303 301 301 301 300 298 296 298 300 304 306 311 310 306 301 298 299 302 299 294 289 289 293 276 249 254 259 266 266 261 250 243 239 247 245 239
309 308 308 308 308 305 303 303 302 300 299 298 296 294 296 299 306 310 315 314 312 309 304 306 312 310 304 300 292 292 292 270 254 259 263 263 257 254 252 260 258 247 235
311 311 313 314 314 311 310 307 303 301 298 291 290 292 296 299 305 308 309 305 301 306 304 307 311 313 308 307 299 297 291 283 264 255 257 265 266 265 259 255 249 246 239
312 314 315 315 315 314 312 311 309 306 305 296 286 284 288 293 292 294 300 298 297 304 305 302 309 312 308 304 306 304 297 292 289 271 263 262 263 263 255 251 256 250 246
313 315 314 314 313 312 310 308 307 306 305 304 299 289 289 288 290 294 295 288 287 292 302 307 311 308 308 301 300 303 307 301 289 281 272 265 264 262 261 260 251 247 252
313 313 312 311 311 311 310 309 307 309 309 307 305 296 295 294 292 294 295 292 278 280 283 291 301 310 310 302 293 293 293 292 294 290 282 276 274 269 266 266 265 265 263
313 313 311 311 311 310 311 309 310 309 306 304 300 298 299 298 300 302 303 297 275 269 274 281 285 282 288 292 282 286 293 289 285 283 285 282 278 274 270 269 271 269 265
315 314 312 311 311 312 311 310 307 307 306 299 292 289 296 301 307 312 313 304 289 277 273 276 278 281 282 280 278 277 275 274 272 274 274 273 273 275 274 275 274 271 271
313 314 314 313 313 311 309 307 305 302 301 297 287 283 289 292 297 300 302 297 293 291 288 285 283 282 281 281 279 276 274 272 271 270 269 270 271 271 270 266 266 268 269
313 313 313 313 313 313 311 309 304 300 298 293 290 289 290 291 294 296 297 295 291 287 285 284 284 284 284 284 283 283 283 281 278 275 272 270 269 269 269 269 269 269 268
316 317 319 320 319 319 318 317 313 310 306 304 300 298 298 300 302 304 305 302 298 295 293 293 292 290 290 293 293 292 293 295 296 296 294 290 286 281 276 271 267 264 262
314 316 319 322 324 327 327 326 325 324 323 321 319 317 317 317 317 318 318 315 312 310 307 306 310 313 312 310 306 303 299 297 298 298 296 293 291 287 284 280 276 273 270
312 315 319 321 321 322 323 324 325 325 325 324 322 322 321 320 319 318 316 314 312 311 309 305 304 304 304 303 300 297 296 295 295 298 292 290 289 289 287 286 284 282 279
Wind_Speed_850mb
12 12 14 16 19 23 26 32 36 40 42 45 51 55 58 58 57 61 65 68 68 66 70 71 72 69 71 73 76 77 78 82 93 93 92 91 91 88 83 83 95 96 102
18 15 12 11 13 16 20 23 25 30 37 44 50 55 57 59 61 63 66 69 69 69 69 69 73 70 71 75 76 79 81 81 83 91 94 94 95 89 82 80 86 99 108
13 10 9 10 9 8 8 11 17 24 29 33 36 38 39 41 46 49 52 56 59 62 64 65 67 65 71 74 77 79 81 82 87 88 92 95 90 85 80 82 88 97 93
16 14 12 12 12 13 12 11 13 18 21 24 26 29 30 33 38 41 45 51 56 57 56 56 57 62 66 71 74 78 80 81 82 85 86 90 90 87 83 83 83 84 88
22 20 17 16 15 17 18 20 23 25 26 27 28 27 29 32 34 39 44 49 52 55 59 58 59 61 65 71 73 76 79 81 81 82 84 87 90 90 90 85 81 80 92
26 26 25 23 24 23 23 24 25 27 32 36 37 37 36 38 43 47 55 61 63 65 67 70 70 69 71 74 73 74 76 74 77 78 82 89 91 89 86 86 79 85 89
27 26 26 26 27 28 30 30 31 32 34 37 40 45 49 50 55 57 59 66 68 71 74 72 76 77 77 77 77 75 74 74 72 74 76 80 79 81 74 85 84 86 85
25 26 27 28 29 30 32 34 35 38 41 42 43 46 50 51 57 60 61 66 70 73 72 72 74 75 76 74 74 73 75 72 70 68 73 69 66 60 60 62 68 68 73
28 30 32 33 35 37 40 43 46 49 51 52 53 53 52 50 53 56 57 61 66 69 68 68 67 67 66 67 71 69 66 67 62 59 59 55 54 51 49 51 66 69 71
32 36 40 43 45 46 48 50 52 55 55 56 55 55 54 52 48 49 52 56 63 64 63 62 59 58 59 61 60 59 61 60 56 52 54 54 54 55 54 53 62 68 68
38 40 42 46 50 53 54 55 55 55 55 54 53 52 51 51 47 47 46 47 50 56 60 63 58 53 55 51 47 49 52 48 46 46 51 56 55 53 56 57 53 49 58
45 48 50 52 55 59 60 59 59 60 61 59 57 52 48 48 48 47 46 46 45 51 54 56 54 47 46 42 39 40 40 43 43 45 53 57 57 53 52 52 48 50 54
44 47 49 50 53 58 64 65 65 63 64 65 62 60 55 49 44 46 46 47 45 47 51 55 55 45 38 37 33 32 31 38 45 42 46 52 54 50 49 49 48 54 59
44 49 52 56 57 58 59 62 66 65 64 64 62 61 59 55 49 48 49 48 44 43 47 49 46 41 35 32 30 27 26 35 49 50 51 52 50 48 48 48 51 57 60
51 54 55 57 58 60 58 60 59 59 60 60 57 55 58 61 57 55 52 50 46 42 43 44 39 33 31 29 32 28 26 30 41 51 50 43 42 40 44 49 53 54 61
47 49 53 56 54 54 57 57 53 55 52 50 50 46 49 54 57 56 49 43 37 35 37 41 39 32 29 27 30 30 30 30 32 42 46 50 49 45 45 45 47 51 57
52 54 54 54 55 56 55 57 62 53 51 39 38 43 49 55 55 50 44 37 32 31 31 34 37 32 28 27 26 27 26 27 28 32 38 44 45 47 46 45 44 46 49
49 52 56 57 56 55 56 56 56 59 60 54 38 45 47 46 45 42 36 33 32 30 30 28 28 28 24 24 25 24 23 23 28 27 30 34 37 41 45 49 52 48 45
47 49 53 55 55 54 53 51 49 48 48 48 45 40 41 37 35 37 34 31 30 27 30 25 21 21 19 19 23 24 22 21 21 23 24 29 33 36 38 39 43 47 47
47 48 50 52 51 50 48 45 41 39 39 39 40 41 35 35 33 32 30 26 25 29 30 28 26 26 23 21 15 13 15 16 18 20 22 23 25 27 30 33 35 37 39
49 47 48 46 46 45 43 41 37 35 34 33 35 36 34 30 29 27 25 21 20 23 26 26 25 24 24 24 22 22 23 24 25 25 24 23 22 23 23 25 28 30 31
46 46 46 46 44 40 37 35 34 34 33 32 30 32 30 29 26 25 23 20 18 19 20 21 22 22 21 20 21 22 23 23 24 26 26 27 28 28 28 27 26 26 27
41 40 39 38 38 36 34 32 31 31 30 29 29 28 28 27 26 25 25 24 23 23 22 23 23 23 23 23 23 23 23 23 24 24 25 26 28 28 29 30 31 32 32
35 35 34 34 33 31 29 28 26 25 24 24 24 24 25 24 24 23 21 20 19 19 19 19 19 19 18 19 19 20 20 20 20 21 22 23 24 25 27 30 33 34 34
29 28 27 27 26 26 24 24 23 22 21 20 19 19 18 17 17 16 15 14 14 13 13 13 13 13 13 14 14 16 18 21 22 22 22 23 25 27 28 29 30 31 32
24 23 24 24 23 24 24 23 23 22 20 19 19 19 19 19 18 18 19 19 19 19 19 18 19 20 21 22 23 25 27 30 29 27 27 28 27 26 26 26 25 25 26
Wind_Direction_850mb
359 342 320 295 273 268 270 269 259 259 260 268 270 269 270 271 267 264 266 271 273 274 274 270 272 274 273 273 273 272 271 272 272 275 271 270 268 268 260 248 238 228 229
7 358 347 336 314 289 276 274 272 264 261 261 265 269 272 272 271 269 267 267 269 270 271 272 272 274 275 277 277 277 275 276 273 277 275 273 272 270 264 253 238 227 233
11 8 8 2 357 333 316 306 291 281 278 277 277 277 275 274 273 271 271 270 270 271 273 272 274 275 272 271 274 274 274 274 274 273 272 271 268 265 255 245 236 235 231
15 9 351 329 328 338 341 326 295 285 287 289 288 287 288 284 280 279 278 280 280 276 274 276 277 274 275 275 275 277 279 275 274 273 268 269 267 264 253 241 233 226 224
37 35 33 19 358 343 332 323 316 309 303 297 293 290 287 287 288 287 287 286 282 279 277 272 269 273 274 274 276 277 278 278 276 273 269 267 263 259 250 244 236 235 230
27 23 17 7 0 353 345 335 325 316 308 302 296 290 288 288 287 290 292 288 285 282 279 280 278 274 274 274 275 278 279 279 277 274 272 268 269 264 258 245 235 227 222
13 8 5 1 355 348 344 336 329 323 317 313 306 298 295 291 284 278 273 273 273 274 276 278 279 279 281 282 280 280 279 278 276 274 270 270 270 270 266 247 238 234 234
3 357 355 354 352 350 346 342 340 337 332 326 320 314 308 301 293 287 284 280 280 278 278 281 283 286 286 286 285 282 280 277 275 270 269 269 268 270 270 263 255 243 235
349 347 345 343 341 338 335 333 332 330 329 328 327 324 317 312 305 300 291 284 282 283 284 285 286 286 288 287 288 288 284 279 279 273 267 264 262 256 248 244 232 228 225
332 333 333 331 330 328 326 324 324 323 323 322 322 322 321 318 316 310 302 298 295 294 291 290 289 290 289 289 290 290 285 285 283 276 260 252 247 249 249 235 231 223 219
319 318 318 318 318 317 317 317 315 314 313 313 314 315 318 318 321 318 316 310 306 302 300 299 299 296 292 289 291 288 287 283 279 271 258 251 245 239 236 230 231 233 240
308 308 308 308 309 307 307 307 307 307 307 306 306 306 309 313 315 313 313 309 304 299 299 298 297 293 286 290 292 292 283 272 269 259 254 243 241 240 239 237 234 238 242
310 310 309 308 306 305 303 302 302 302 302 301 301 300 303 306 310 311 316 314 309 299 298 296 298 301 294 290 291 293 275 256 259 255 250 258 256 252 238 243 243 241 240
311 308 307 306 304 302 302 303 301 301 301 300 298 296 298 300 304 306 311 310 306 301 298 299 302 299 294 289 289 293 276 249 254 259 266 266 261 250 243 239 247 245 239
309 308 308 308 308 305 303 303 302 300 299 298 296 294 296 299 306 310 315 314 312 309 304 306 312 310 304 300 292 292 292 270 254 259 263 263 257 254 252 260 258 247 235
311 311 313 314 314 311 310 307 303 301 298 291 290 292 296 299 305 308 309 305 301 306 304 307 311 313 308 307 299 297 291 283 264 255 257 265 266 265 259 255 249 246 239
312 314 315 315 315 314 312 311 309 306 305 296 286 284 288 293 292 294 300 298 297 304 305 302 309 312 308 304 306 304 297 292 289 271 263 262 263 263 255 251 256 250 246
313 315 314 314 313 312 310 308 307 306 305 304 299 289 289 288 290 294 295 288 287 292 302 307 311 308 308 301 300 303 307 301 289 281 272 265 264 262 261 260 251 247 252
313 313 312 311 311 311 310 309 307 309 309 307 305 296 295 294 292 294 295 292 278 280 283 291 301 310 310 302 293 293 293 292 294 290 282 276 274 269 266 266 265 265 263
313 313 311 311 311 310 311 309 310 309 306 304 300 298 299 298 300 302 303 297 275 269 274 281 285 282 288 292 282 286 293 289 285 283 285 282 278 274 270 269 271 269 265
315 314 312 311 311 312 311 310 307 307 306 299 292 289 296 301 307 312 313 304 289 277 273 276 278 281 282 280 278 277 275 274 272 274 274 273 273 275 274 275 274 271 271
313 314 314 313 313 311 309 307 305 302 301 297 287 283 289 292 297 300 302 297 293 291 288 285 283 282 281 281 279 276 274 272 271 270 269 270 271 271 270 266 266 268 269
313 313 313 313 313 313 311 309 304 300 298 293 290 289 290 291 294 296 297 295 291 287 285 284 284 284 284 284 283 283 283 281 278 275 272 270 269 269 269 269 269 269 268
316 317 319 320 319 319 318 317 313 310 306 304 300 298 298 300 302 304 305 302 298 295 293 293 292 290 290 293 293 292 293 295 296 296 294 290 286 281 276 271 267 264 262
314 316 319 322 324 327 327 326 325 324 323 321 319 317 317 317 317 318 318 315 312 310 307 306 310 313 312 310 306 303 299 297 298 298 296 293 291 287 284 280 276 273 270
312 315 319 321 321 322 323 324 325 325 325 324 322 322 321 320 319 318 316 314 312 311 309 305 304 304 304 303 300 297 296 295 295 298 292 290 289 289 287 286 284 282 279